Location: Cruquius
(52.3348°N, 4.6319°E)
Time: 15:21:26
(UTC+00:00)

NOSS 3-3 (C) - Pass Details

Date: 02 October 2021
Orbit: 801 x 1411 km, 63.4° (Epoch: 05 October)

Event Time Altitude Azimuth Distance (km) Brightness Sun altitude
Rises 18:27:06 0° 314° (NW) 3,922 8.2 -11.7°
Reaches altitude 10° 18:29:39 10° 311° (NW) 3,044 7.5 -12.0°
Maximum altitude 18:36:57 65° 232° (SW) 1,379 4.9 -13.1°
Drops below altitude 10° 18:45:12 10° 154° (SSE) 3,419 6.5 -14.4°
Enters shadow 18:47:53 - 151° (SSE) 4,317 7.0 -14.8°
